Location: Bijele Vode
(45.2833°N, 16.2000°E)
Time: 03:16:01
(UTC+00:00)

UNISAT 6 - Visible Passes

Search period start: 29 November 2021 00:00
Search period end: 09 December 2021 00:00
Orbit: 605 x 688 km, 97.7° (Epoch: 28 November)

Date Brightness Start Highest point End Pass type
(mag) Time Alt. Az. Time Alt. Az. Time Alt. Az.
29 Nov ? 03:40:05 10° ESE 03:42:46 16° ENE 03:45:26 10° NNE visible
29 Nov ? 05:14:48 10° S 05:19:03 54° W 05:23:16 10° NNW visible
29 Nov ? 17:10:49 11° SSE 17:10:49 11° SSE 17:11:07 10° SSE visible
30 Nov ? 04:04:26 10° SE 04:08:06 28° ENE 04:11:44 10° N visible
30 Nov ? 17:36:36 15° S 17:36:36 15° S 17:37:24 10° S visible
01 Dec ? 04:29:22 10° SSE 04:33:31 49° ENE 04:37:38 10° N visible
01 Dec ? 18:02:23 15° SSW 18:02:23 15° SSW 18:03:11 10° SSW visible
02 Dec ? 03:22:03 10° ENE 03:23:00 11° ENE 03:23:58 10° NE visible
02 Dec ? 04:54:43 10° SSE 04:59:02 88° W 05:03:19 10° NNW visible
02 Dec ? 18:28:10 12° SW 18:28:10 12° SW 18:28:33 10° SSW visible
03 Dec ? 03:45:19 10° ESE 03:48:16 18° ENE 03:51:12 10° NNE visible
03 Dec ? 05:20:29 10° S 05:24:37 46° W 05:28:45 10° NNW visible
03 Dec ? 17:16:13 14° SSE 17:16:13 14° SSE 17:16:58 10° SSE visible
04 Dec ? 04:09:49 10° SE 04:13:36 31° ENE 04:17:23 10° N visible
04 Dec ? 17:41:59 17° S 17:41:59 17° S 17:43:07 10° S visible
05 Dec ? 04:34:51 10° SSE 04:39:03 57° ENE 04:43:14 10° N visible
05 Dec ? 18:07:45 17° SSW 18:07:45 17° SSW 18:08:47 10° SSW visible
06 Dec ? 03:26:47 10° E 03:28:28 12° ENE 03:30:10 10° NE visible
06 Dec ? 05:00:18 10° S 05:04:34 76° WSW 05:08:50 10° NNW visible
06 Dec ? 16:55:47 12° SE 16:55:47 12° SE 16:56:10 10° SE visible
06 Dec ? 18:33:30 13° SW 18:33:30 13° SW 18:34:03 10° SW visible
07 Dec ? 03:50:34 10° ESE 03:53:44 21° ENE 03:56:55 10° NNE visible
07 Dec ? 05:26:11 10° SSW 05:30:11 40° W 05:34:12 10° NNW visible
07 Dec ? 17:21:33 17° SSE 17:21:33 17° SSE 17:22:46 10° SSE visible
08 Dec ? 04:15:13 10° SE 04:19:07 36° ENE 04:23:00 10° N visible
08 Dec ? 17:47:18 20° S 17:47:18 20° S 17:48:47 10° S visible
